NKS404 KDTW-KLAS

Flight info

Callsign NKS404
Flight time N/A
Altitude 38000
Route KAYLN3 SMUUV OBK IOW J60 HVE GGAPP CHOWW4
Aircraft A20N/M-SDE2E3FGHIRWXY/LB1

Departure

Time 2026-05-07 07:31
Airport Detroit Metropolitan Wayne County Airport (KDTW)

Arrival

Time N/A
Airport Harry Reid International Airport (KLAS)
Time Latitude Longitude Altitude Speed Heading
2026-05-07 06:59 42.20372 -83.36079 641 ft 0 kts 300°
2026-05-07 07:21 42.20369 -83.36071 641 ft 1 kts 300°
2026-05-07 07:22 42.20363 -83.36053 641 ft 2 kts 278°
2026-05-07 07:22 42.20363 -83.36033 641 ft 2 kts 261°
2026-05-07 07:22 42.20367 -83.36013 641 ft 2 kts 241°
2026-05-07 07:22 42.20376 -83.35997 641 ft 2 kts 222°
2026-05-07 07:23 42.20384 -83.35989 641 ft 0 kts 210°
2026-05-07 07:23 42.20390 -83.35986 641 ft 0 kts 208°
2026-05-07 07:23 42.20389 -83.35986 641 ft 0 kts 208°
2026-05-07 07:25 42.20372 -83.35997 641 ft 2 kts 206°
2026-05-07 07:25 42.20351 -83.36014 641 ft 4 kts 212°
2026-05-07 07:25 42.20322 -83.36038 641 ft 5 kts 210°
2026-05-07 07:26 42.20284 -83.36066 641 ft 6 kts 207°
2026-05-07 07:26 42.20235 -83.36099 641 ft 8 kts 207°
2026-05-07 07:26 42.20180 -83.36137 641 ft 9 kts 207°
2026-05-07 07:26 42.20112 -83.36160 641 ft 10 kts 178°
2026-05-07 07:27 42.20068 -83.36090 640 ft 11 kts 89°
2026-05-07 07:27 42.20071 -83.35980 640 ft 12 kts 89°
2026-05-07 07:27 42.20072 -83.35860 640 ft 13 kts 88°
2026-05-07 07:27 42.20075 -83.35730 640 ft 14 kts 88°
2026-05-07 07:28 42.20072 -83.35594 639 ft 14 kts 91°
2026-05-07 07:28 42.20077 -83.35451 639 ft 15 kts 85°
2026-05-07 07:28 42.20074 -83.35301 638 ft 16 kts 112°
2026-05-07 07:28 42.20022 -83.35209 638 ft 2 kts 135°
2026-05-07 07:29 42.20017 -83.35202 638 ft 2 kts 135°
2026-05-07 07:29 42.19998 -83.35176 637 ft 7 kts 134°
2026-05-07 07:29 42.19958 -83.35113 637 ft 9 kts 130°
2026-05-07 07:29 42.19928 -83.35025 637 ft 11 kts 106°
2026-05-07 07:30 42.19925 -83.34928 636 ft 10 kts 61°
2026-05-07 07:30 42.20001 -83.34860 636 ft 27 kts 28°
2026-05-07 07:30 42.20390 -83.34573 636 ft 98 kts 28°
2026-05-07 07:30 42.21175 -83.33995 637 ft 156 kts 27°
2026-05-07 07:31 42.22188 -83.33261 1064 ft 168 kts 26°
2026-05-07 07:31 42.23231 -83.32508 1714 ft 173 kts 25°
2026-05-07 07:31 42.24370 -83.31960 2283 ft 180 kts
2026-05-07 07:31 42.25599 -83.32272 2827 ft 187 kts 335°
2026-05-07 07:32 42.26779 -83.33117 3290 ft 204 kts 332°
2026-05-07 07:32 42.28119 -83.33948 3773 ft 222 kts 338°
2026-05-07 07:32 42.29626 -83.34706 4279 ft 240 kts 340°
2026-05-07 07:32 42.31240 -83.35459 4925 ft 252 kts 340°
2026-05-07 07:33 42.32909 -83.36215 5767 ft 256 kts 340°
2026-05-07 07:33 42.34610 -83.36977 6446 ft 258 kts 339°
2026-05-07 07:33 42.36309 -83.37741 6824 ft 261 kts 339°
2026-05-07 07:33 42.38053 -83.38570 7407 ft 267 kts 332°
2026-05-07 07:34 42.39573 -83.39928 8274 ft 264 kts 313°
2026-05-07 07:34 42.40773 -83.41781 9077 ft 264 kts 304°
2026-05-07 07:34 42.41893 -83.43737 9855 ft 268 kts 303°
2026-05-07 07:34 42.43022 -83.45727 10526 ft 274 kts 303°
2026-05-07 07:35 42.44215 -83.47828 11001 ft 288 kts 303°
2026-05-07 07:35 42.45455 -83.50004 11712 ft 292 kts 301°
2026-05-07 07:35 42.46350 -83.52380 12431 ft 287 kts 283°
2026-05-07 07:35 42.46616 -83.55017 13169 ft 284 kts 267°
2026-05-07 07:36 42.46514 -83.57677 13893 ft 286 kts 265°
2026-05-07 07:36 42.46395 -83.60365 14624 ft 288 kts 265°
2026-05-07 07:36 42.46275 -83.63053 15320 ft 290 kts 265°
2026-05-07 07:36 42.46154 -83.65752 15998 ft 291 kts 265°
2026-05-07 07:37 42.46034 -83.68495 16696 ft 293 kts 265°
2026-05-07 07:37 42.45915 -83.71228 17354 ft 294 kts 265°
2026-05-07 07:37 42.45794 -83.73992 18014 ft 295 kts 265°
2026-05-07 07:37 42.45674 -83.76760 18661 ft 296 kts 265°
2026-05-07 07:38 42.45555 -83.79527 19287 ft 298 kts 265°
2026-05-07 07:38 42.45435 -83.82334 19912 ft 300 kts 265°
2026-05-07 07:38 42.45310 -83.85178 20477 ft 303 kts 265°
2026-05-07 07:38 42.45183 -83.88071 21092 ft 304 kts 265°
2026-05-07 07:39 42.45052 -83.91033 21740 ft 305 kts 265°
2026-05-07 07:39 42.44923 -83.93917 22342 ft 306 kts 264°
2026-05-07 07:39 42.44908 -83.94247 22412 ft 306 kts 265°